Theta_e
317 317 317 318 319 319 319 318 320 320 320 318 319 319 319 308 298 299 301 301 317 319 321 322 322 323 325 326 327 330 335 337 341
316 315 317 318 317 318 318 318 318 319 319 317 317 317 316 301 297 297 298 298 317 320 320 320 322 322 323 324 325 327 330 333 336
314 314 317 316 317 316 317 317 317 316 316 315 316 315 315 300 296 296 296 307 317 320 319 320 321 321 322 323 324 325 327 330 332
311 312 314 316 315 315 314 314 315 314 312 313 313 313 309 296 295 297 296 311 316 319 320 319 320 320 321 321 323 324 325 326 329
309 311 313 314 312 312 312 313 312 311 309 310 311 309 305 294 295 296 296 313 315 317 318 318 319 319 320 321 322 322 323 324 325
298 309 309 310 309 309 310 310 309 308 306 307 307 305 295 294 295 295 310 313 316 317 317 317 318 319 320 320 320 321 321 322 323
300 304 307 307 306 306 307 308 307 302 294 294 300 294 294 295 294 295 310 312 315 317 317 316 317 318 319 321 320 321 322 322 322
292 292 293 292 300 293 295 294 294 293 293 294 294 295 294 293 294 298 309 311 313 315 315 316 316 317 317 318 318 319 320 322 323
290 291 292 291 292 291 291 291 292 293 294 293 293 294 294 294 295 296 308 310 312 313 315 315 315 316 316 316 318 317 320 320 320
290 290 291 291 291 291 291 291 292 292 293 293 293 293 293 294 295 294 304 309 310 311 313 313 314 314 315 316 317 317 318 318 319
290 290 291 291 290 291 291 290 291 291 292 292 293 293 293 294 294 294 294 305 307 309 310 311 312 313 313 315 315 315 316 318 319
290 290 289 290 290 291 291 290 290 290 292 290 292 292 292 293 293 294 293 295 302 306 307 309 311 312 313 314 315 315 316 318 318
290 290 289 290 290 290 290 289 289 288 288 288 289 289 290 292 292 292 293 293 295 298 304 308 309 310 312 313 315 316 316 317 317
290 290 290 290 289 289 289 289 287 287 288 290 289 288 288 291 291 290 292 293 293 294 299 304 306 308 311 314 314 314 315 316 317
291 291 291 290 289 289 288 287 288 288 287 290 290 287 288 289 289 289 292 292 293 293 293 294 296 305 308 310 312 312 315 315 316
291 290 291 290 289 288 288 288 287 287 288 285 288 286 286 287 290 289 289 291 292 292 293 294 295 297 305 306 309 312 312 314 315
292 291 290 290 289 289 288 287 286 287 288 285 283 281 283 286 289 288 290 290 292 292 293 293 294 296 297 299 306 308 312 315 315
292 291 290 290 289 289 288 288 287 286 287 287 285 280 279 283 286 287 288 289 291 290 292 294 295 295 296 299 301 306 311 314 316
292 291 291 290 290 289 289 292 288 286 286 286 289 287 285 281 281 286 287 289 290 290 292 293 294 295 295 299 302 307 309 312 315
292 291 290 290 290 290 289 289 289 287 286 285 285 285 285 283 282 282 286 289 291 291 291 292 292 294 295 297 301 307 308 311 313
Wind_Speed
12 12 13 14 14 14 14 14 16 16 16 15 15 16 17 17 7 6 8 8 14 12 11 12 13 14 15 15 16 15 17 17 17
13 13 13 14 15 15 15 16 16 17 18 17 16 15 14 9 7 7 6 8 14 13 11 12 13 13 14 15 16 16 16 17 17
12 13 15 15 15 16 17 17 17 17 19 18 18 17 18 12 7 7 6 13 14 13 11 11 12 13 14 15 15 15 16 16 17
12 12 13 15 18 18 17 17 17 18 17 17 17 18 18 9 6 8 6 15 15 15 14 13 14 14 14 14 15 16 16 17 18
12 12 15 16 17 16 16 16 16 17 17 17 16 16 14 6 7 6 6 16 14 14 14 14 14 15 15 15 15 15 17 17 17
8 10 14 15 17 14 15 16 17 17 16 17 18 16 3 5 4 4 17 17 16 15 14 14 14 15 15 15 15 15 15 17 18
6 9 14 16 16 16 16 17 18 15 6 5 11 4 6 4 4 3 17 18 18 16 14 14 15 16 16 18 18 20 20 17 17
4 3 3 4 9 3 6 6 4 7 5 7 6 6 5 3 4 8 17 16 15 17 16 16 16 15 17 18 19 19 18 20 22
4 2 3 4 3 5 4 3 5 6 6 6 7 8 5 4 3 6 17 16 15 15 16 16 17 19 18 19 21 20 20 22 21
2 2 2 3 3 3 4 4 4 5 6 6 6 7 7 7 4 3 18 15 16 17 18 18 18 19 20 22 22 21 23 24 25
2 3 3 3 3 3 3 4 4 4 4 6 6 6 6 6 6 4 6 17 18 17 18 20 21 22 21 22 23 24 22 22 23
3 2 3 3 3 4 4 4 4 4 5 6 6 5 6 5 6 6 5 7 16 19 19 19 19 21 23 23 22 21 22 22 22
3 2 3 4 3 3 3 3 4 4 4 4 5 4 5 6 6 6 5 5 5 12 21 21 20 22 21 22 20 20 21 22 22
1 2 3 3 3 4 3 3 2 4 5 6 5 4 4 4 6 7 6 6 6 5 14 20 21 22 21 22 21 23 22 23 24
0 1 3 3 3 4 3 2 3 3 4 6 7 4 2 3 6 6 6 6 8 7 8 7 9 21 22 22 23 24 24 25 26
1 1 2 2 2 3 3 2 3 4 4 4 4 4 3 3 8 4 5 6 8 8 8 6 6 8 21 23 23 24 24 27 26
3 3 2 2 2 4 4 2 3 3 3 3 1 5 5 4 5 4 5 6 6 7 9 8 9 8 7 14 23 22 24 27 28
4 4 3 3 2 3 3 3 2 2 3 2 1 3 3 7 3 4 4 6 6 5 7 9 9 9 8 13 16 23 27 27 31
5 5 5 4 3 4 3 2 2 1 3 3 1 4 3 3 7 2 4 5 7 7 7 7 8 9 8 15 20 25 26 27 32
5 5 6 5 3 4 5 4 3 2 2 2 2 2 2 3 4 8 10 5 6 5 5 6 6 8 9 9 14 25 26 28 29
Wind_Direction
9 12 357 1 3 358 2 356 354 357 3 0 357 356 19 28 4 355 344 342 325 344 357 354 350 345 344 344 339 330 327 330 334
9 8 355 5 0 3 359 358 359 1 1 357 352 352 3 36 359 344 339 325 339 337 347 347 344 341 339 338 337 331 325 328 328
14 4 4 6 1 7 6 0 2 4 4 354 354 354 3 15 348 329 331 327 338 334 338 338 337 336 335 333 330 329 325 323 325
16 15 12 14 8 5 8 358 5 6 360 355 353 358 4 356 337 339 327 320 338 335 337 335 332 332 330 328 324 324 323 322 319
16 19 18 16 8 359 1 2 8 9 359 359 0 6 2 345 343 338 321 336 333 329 327 330 328 325 324 322 321 319 318 317 314
12 25 27 23 14 11 11 9 7 10 1 2 5 6 341 339 337 329 334 338 328 329 325 324 323 323 321 317 316 314 312 309 308
38 30 28 20 23 17 12 5 1 353 342 338 350 334 333 343 330 327 335 332 327 326 322 320 321 317 332 329 327 323 319 309 300
28 33 11 354 7 359 354 344 335 339 340 341 335 334 332 326 327 332 342 336 322 324 320 321 327 326 319 323 313 313 312 309 306
20 1 352 354 346 349 350 341 330 342 337 337 330 331 332 331 324 326 345 343 335 329 327 329 320 323 322 311 315 313 310 306 300
16 5 341 341 338 349 353 348 343 342 336 330 325 322 323 327 328 319 351 351 347 340 333 325 331 320 325 318 314 310 307 300 295
35 19 357 336 331 327 349 348 341 331 331 325 320 317 320 323 327 324 336 348 355 351 345 335 323 319 316 316 312 305 301 297 298
37 20 357 337 326 329 354 346 339 344 334 327 319 324 328 329 331 335 336 337 342 347 341 333 325 323 321 312 309 304 302 301 298
32 17 360 339 347 344 340 316 317 315 320 308 305 330 334 333 338 341 335 336 337 339 338 337 334 327 315 311 313 312 310 304 301
63 25 337 351 359 8 338 323 327 315 324 323 316 319 324 331 339 334 337 330 329 323 329 334 334 332 321 320 319 318 315 310 305
134 3 4 13 13 357 348 309 316 286 299 318 308 298 324 330 353 335 339 325 327 322 319 315 316 327 333 324 318 314 319 317 307
229 339 343 6 8 306 306 310 332 314 330 322 353 331 359 313 348 322 320 319 332 318 318 316 310 308 321 328 319 316 315 314 309
222 236 257 284 309 328 324 4 332 296 349 347 321 348 333 308 311 317 327 324 321 317 321 315 310 308 305 315 328 319 313 314 316
228 233 236 256 243 287 301 300 357 316 310 34 136 350 303 326 287 312 329 322 322 305 321 316 314 311 306 315 313 313 315 325 325
239 233 230 244 245 267 271 280 262 168 291 317 228 237 229 301 326 281 317 319 331 313 317 314 312 311 310 313 314 311 333 327 328
248 234 226 241 236 255 263 287 288 208 245 210 287 275 266 234 253 309 332 329 326 310 303 306 304 309 313 313 311 339 332 334 334